This demonstration page uses our WeatherBlox Daily Observations layout. Learn more.

Left ArrowRight Arrow

39.51506, -84.39828

Hourly Observations for May 3, 2016

Temp ( °F °C ) Dew Point ( °F °C ) Humidity (%) Winds ( mph kmh ) Pressure ( in mb ) Visibility ( mi km ) Precip ( " mm )
12:15 am 00:15 Cloudy 57 13.8 48 9.1 73 73 undefined N/A 29.97 1015 10 16 N/A
12:35 am 00:35 Cloudy 57 13.8 48 9 73 73 undefined N/A 29.97 1015 10 16 N/A
12:55 am 00:55 Cloudy 57 13.8 48 9.1 73 73 undefined N/A 29.94 1014 10 16 N/A
1:15 am 01:15 Cloudy 57 13.8 48 9.1 73 73 undefined N/A 29.94 1014 10 16 N/A
1:35 am 01:35 Cloudy 57 13.7 48 9.1 74 74 undefined N/A 29.94 1014 10 16 N/A
1:55 am 01:55 Cloudy 55 12.5 46 7.5 72 72 undefined N/A 29.94 1014 10 16 N/A
2:15 am 02:15 Cloudy 55 12.5 46 7.5 72 72 undefined N/A 29.94 1014 10 16 N/A
2:35 am 02:35 Cloudy 55 12.5 45 7.2 70 70 undefined N/A 29.94 1014 10 16 N/A
2:55 am 02:55 Cloudy 55 12.5 45 7.3 71 71 NE 5 7 29.94 1014 10 16 N/A
3:15 am 03:15 Cloudy 55 12.5 46 7.5 72 72 undefined N/A 29.94 1014 10 16 N/A
3:35 am 03:35 Cloudy 55 12.5 46 7.7 73 73 NNE 3 6 29.91 1013 10 16 N/A
3:55 am 03:55 Cloudy with Light Rain 55 12.5 46 7.7 73 73 NNE 5 7 29.91 1013 10 16 N/A
4:15 am 04:15 Cloudy 55 12.5 46 8 74 74 undefined N/A 29.91 1013 10 16 N/A
4:35 am 04:35 Cloudy 55 12.5 46 7.6 72 72 NNE 5 7 29.91 1013 10 16 N/A
4:55 am 04:55 Cloudy 55 12.5 46 7.6 72 72 undefined N/A 29.91 1013 10 16 N/A
5:15 am 05:15 Cloudy 55 12.5 46 7.9 74 74 N 3 6 29.91 1013 10 16 N/A
5:35 am 05:35 Cloudy 55 12.5 46 8 74 74 undefined N/A 29.91 1013 10 16 N/A
5:55 am 05:55 Cloudy 55 12.5 46 7.7 73 73 N 5 7 29.91 1013 10 16 N/A
6:15 am 06:15 Cloudy 55 12.5 46 8 74 74 NNE 3 6 29.91 1013 10 16 N/A
6:35 am 06:35 Cloudy 55 12.5 46 7.8 73 73 NNE 5 7 29.91 1013 10 16 N/A
6:55 am 06:55 Cloudy 55 12.5 46 7.7 73 73 NNE 5 7 29.91 1013 10 16 N/A
7:15 am 07:15 Cloudy 55 12.5 46 7.7 73 73 N 5 7 29.91 1013 10 16 N/A
7:35 am 07:35 Cloudy 55 12.5 46 7.5 72 72 N 5 7 29.94 1014 10 16 N/A
7:55 am 07:55 Cloudy 55 12.5 46 7.6 72 72 NNE 6 9 29.94 1014 10 16 N/A
8:15 am 08:15 Cloudy 55 12.5 46 7.5 72 72 N 5 7 29.94 1014 10 16 N/A
8:35 am 08:35 Cloudy 55 12.5 46 7.6 72 72 N 6 9 29.94 1014 10 16 N/A
8:55 am 08:55 Cloudy 55 12.5 46 7.5 72 72 NNE 6 9 29.94 1014 10 16 N/A
9:15 am 09:15 Cloudy 55 12.5 46 7.5 72 72 NE 6 9 29.94 1014 10 16 N/A
9:35 am 09:35 Cloudy 55 12.5 45 7.4 71 71 N 6 9 29.94 1014 10 16 N/A
9:55 am 09:55 Cloudy 55 12.5 46 7.5 72 72 NNE 5 7 29.94 1014 10 16 N/A
10:15 am 10:15 Cloudy 55 12.5 46 7.5 72 72 NNW 6 9 29.94 1014 10 16 N/A
10:35 am 10:35 Cloudy 55 12.5 45 7.3 71 71 NNE 6 9 29.94 1014 10 16 N/A
10:55 am 10:55 Cloudy 55 12.5 45 7 69 69 N 5 7 29.94 1014 10 16 N/A
11:15 am 11:15 Cloudy 55 12.5 45 7 69 69 N 5 7 29.94 1014 10 16 N/A
11:35 am 11:35 Cloudy 55 12.5 44 6.4 67 67 N N/A 29.94 1014 10 16 N/A
11:55 am 11:55 Cloudy 57 13.8 45 7 64 64 N N/A 29.94 1014 10 16 N/A
12:15 pm 12:15 Cloudy 57 13.8 44 6.6 62 62 undefined N/A 29.94 1014 10 16 N/A
12:35 pm 12:35 Cloudy 57 13.8 43 6 60 60 undefined N/A 29.94 1014 10 16 N/A
12:55 pm 12:55 Cloudy 57 13.8 43 5.9 59 59 undefined N/A 29.94 1014 10 16 N/A
1:15 pm 13:15 Cloudy 57 13.8 43 6.3 61 61 undefined N/A 29.94 1014 10 16 N/A
1:35 pm 13:35 Cloudy with Drizzle 55 12.5 44 6.7 68 68 undefined N/A 29.94 1014 3 4 N/A
1:55 pm 13:55 Cloudy 55 13 46 7.6 70 70 ENE 3 6 29.94 1014 10 16 N/A
2:15 pm 14:15 Cloudy 57 13.8 44 6.8 63 63 undefined N/A 29.91 1013 10 16 N/A
2:35 pm 14:35 Cloudy 57 13.8 43 6.1 60 60 undefined N/A 29.91 1013 10 16 N/A
2:55 pm 14:55 Cloudy 58 14.5 43 5.9 57 57 undefined N/A 29.88 1012 10 16 N/A
3:15 pm 15:15 Cloudy 60 15.3 42 5.8 53 53 undefined N/A 29.88 1012 10 16 N/A
3:35 pm 15:35 Cloudy 60 15.3 44 6.4 56 56 undefined N/A 29.88 1012 10 16 N/A
3:55 pm 15:55 Cloudy 60 15.3 44 6.5 56 56 undefined N/A 29.88 1012 10 16 N/A
4:15 pm 16:15 Cloudy 60 15.3 43 6.1 54 54 undefined N/A 29.85 1011 10 16 N/A
4:35 pm 16:35 Cloudy 60 15.3 43 5.9 54 54 N N/A 29.85 1011 10 16 N/A
4:55 pm 16:55 Cloudy 60 15.3 43 6.2 55 55 WNW 3 6 29.85 1011 10 16 N/A
5:15 pm 17:15 Cloudy 60 15.3 42 5.7 53 53 undefined N/A 29.85 1011 10 16 N/A
5:35 pm 17:35 Cloudy 60 15.3 42 5.7 53 53 NW 7 11 29.85 1011 10 16 N/A
5:55 pm 17:55 Cloudy 60 15.3 42 5.6 53 53 NW 5 7 29.85 1011 10 16 N/A
6:15 pm 18:15 Cloudy 60 15.3 42 5.5 52 52 NW 3 6 29.85 1011 10 16 N/A
6:35 pm 18:35 Cloudy 60 15.3 42 5.7 53 53 WNW 5 7 29.85 1011 10 16 N/A
6:55 pm 18:55 Cloudy 60 15.3 43 6.2 55 55 undefined N/A 29.85 1011 10 16 N/A
7:15 pm 19:15 Cloudy 60 15.3 44 6.5 56 56 W 5 7 29.85 1011 10 16 N/A
7:35 pm 19:35 Cloudy 60 15.3 43 6.3 55 55 WNW 3 6 29.85 1011 10 16 N/A
7:55 pm 19:55 Cloudy 60 15.3 45 7.4 60 60 WNW 3 6 29.85 1011 10 16 N/A
8:15 pm 20:15 Cloudy 60 15.3 46 7.7 61 61 N N/A 29.85 1011 10 16 N/A
8:35 pm 20:35 Cloudy 57 13.9 45 7.3 65 65 N N/A 29.88 1012 10 16 N/A
8:55 pm 20:55 Cloudy 57 13.8 47 8.4 70 70 N N/A 29.88 1012 10 16 N/A
9:15 pm 21:15 Cloudy 56 13.5 48 8.9 74 74 N N/A 29.88 1012 10 16 N/A
9:35 pm 21:35 Cloudy 55 12.5 47 8.3 76 76 N N/A 29.88 1012 10 16 N/A
9:55 pm 21:55 Cloudy 55 12.5 47 8.6 77 77 undefined N/A 29.88 1012 10 16 N/A
10:15 pm 22:15 Cloudy 55 12.5 47 8.6 77 77 N N/A 29.88 1012 10 16 N/A
10:35 pm 22:35 Cloudy 55 12.5 48 8.7 78 78 N N/A 29.88 1012 10 16 N/A
10:55 pm 22:55 Cloudy 55 12.5 47 8.6 77 77 N N/A 29.88 1012 10 16 N/A
11:15 pm 23:15 Partly Cloudy 55 12.5 48 9 79 79 N N/A 29.88 1012 10 16 N/A
11:35 pm 23:35 Clear 52 11 46 7.8 81 81 N N/A 29.85 1011 10 16 N/A
11:55 pm 23:55 Clear 51 10.7 45 7.3 80 80 undefined N/A 29.85 1011 10 16 N/A

Powered by AerisWeather